Regional Weather Roundup
Issued by NWS

Home | Current Version | Previous Version | Graphics & Text | Print | Product List | Glossary Off
Versions: 1 2 3 4 5 6 7 8 9 10 11 12 13 14 15 16 17 18 19 20 21 22 23 24 25 26 27 28 29 30 31 32 33 34 35 36 37 38 39 40 41 42 43 44 45 46 47 48 49 50

000
ASUS43 KMKX 280600
RWRWI

WISCONSIN REGIONAL WEATHER ROUNDUP
NATIONAL WEATHER SERVICE MILWAUKEE/SULLIVAN WI
1200 AM CST FRI NOV 28 2014

NOTE: "FAIR" INDICATES FEW OR NO CLOUDS BELOW 12,000 FEET WITH NO
SIGNIFICANT WEATHER AND/OR OBSTRUCTIONS TO VISIBILITY.

WIZ001-002-006>008-014>016-023>028-280700-
NORTHWEST WISCONSIN

CITY           SKY/WX    TMP DP  RH WIND       PRES   REMARKS
SUPERIOR ARPT  CLOUDY     6  -2  67 SW6       30.28F WCI  -4
ASHLAND        CLOUDY     5   0  79 SW5       30.30F WCI  -4
6HR MIN TEMP:  -4; 6HR MAX TEMP:   5;

HAYWARD        CLOUDY     4  -2  76 SW3       30.25F
6HR MIN TEMP:  -4; 6HR MAX TEMP:   4;

SIREN          MOCLDY     8  -1  67 S5        30.28F WCI  -1
CUMBERLAND     CLOUDY     9  -2  61 S5        30.27S WCI   0
RICE LAKE      CLOUDY     7  -1  70 SE3       30.30F
CHETEK         CLOUDY     7   0  71 CALM      30.29F
LADYSMITH      CLOUDY     5  -1  76 CALM      30.29F
EAU CLAIRE     NOT AVBL
MENOMONIE      CLOUDY    10   1  66 S3        30.32S
NEW RICHMOND   CLOUDY     9   1  70 S8        30.29F WCI  -3
OSCEOLA        LGT SNOW  10   2  73 S6        30.32F WCI   0
$$

WIZ003>005-009-010-017-018-280700-
NORTH CENTRAL WISCONSIN

CITY           SKY/WX    TMP DP  RH WIND       PRES   REMARKS
MANITOWISH WTR PTCLDY   -11 -16  80 CALM      30.22F
ARBOR VITAE    PTCLDY    -4  -8  82 CALM      30.22F
WOODRUFF       PTCLDY    -4  -8  82 CALM      30.22F
RHINELANDER    PTCLDY    -7 -10  87 CALM      30.23F
6HR MIN TEMP: -11; 6HR MAX TEMP:  -1;

EAGLE RIVER    PTCLDY    -7 -12  77 CALM      30.23S
LAND O LAKES   PTCLDY   -12 -17  79 CALM      30.23F
PHILLIPS       CLOUDY    -3  -7  85 CALM      30.25S
TOMAHAWK       MOCLDY    -8 -13  80 CALM      30.26F
MEDFORD        CLOUDY     2  -2  83 CALM      30.26S
MERRILL        MOCLDY    -4  -8  84 CALM      30.28S
$$

WIZ029-030-035-036-043>047-280700-
CENTRAL WISCONSIN

CITY           SKY/WX    TMP DP  RH WIND       PRES   REMARKS
WAUSAU         MOCLDY     2  -1  88 CALM      30.28F
6HR MIN TEMP:   0; 6HR MAX TEMP:   7;

MOSINEE        MOCLDY     1   0  92 SW3       30.31R
MARSHFIELD     MOCLDY     4   0  83 CALM      30.29F
6HR MIN TEMP:  -3; 6HR MAX TEMP:   4;

STEVENS POINT  MOCLDY    -3  -6  86 CALM      30.33R
WAUPACA        PTCLDY     3  -1  81 CALM      30.35S
WAUTOMA        NOT AVBL
WISC RAPIDS    MOCLDY     3  -1  83 CALM      30.33F
6HR MIN TEMP:  -2; 6HR MAX TEMP:   6;

CAMP DOUGLAS   NOT AVBL
$$

WIZ011>013-019>022-031-037>040-048>050-280700-
NORTHEAST WISCONSIN

CITY           SKY/WX    TMP DP  RH WIND       PRES   REMARKS
ANTIGO         PTCLDY   -12 -15  84 CALM      30.26F
SHAWANO        PTCLDY     5   1  83 CALM      30.34S
OCONTO         MOCLDY    -2  -5  87 CALM      30.36R
STURGEON BAY   PTCLDY     7   0  72 S3        30.32S
6HR MIN TEMP:   5; 6HR MAX TEMP:  16;

GREEN BAY      PTCLDY     2  -2  83 CALM      30.35S
6HR MIN TEMP:  -1; 6HR MAX TEMP:  12;

MANITOWOC      NOT AVBL
APPLETON       PTCLDY     5   1  85 W9        30.34S WCI  -9
CLINTONVILLE   PTCLDY     0  -6  78 CALM      30.34S
OSHKOSH        PTCLDY     5   0  79 MISG      30.35S
6HR MIN TEMP:   4; 6HR MAX TEMP:  10;

$$

WIZ032>034-041-042-053>061-280700-
SOUTHWEST WISCONSIN

CITY           SKY/WX    TMP DP  RH WIND       PRES   REMARKS
LA CROSSE      CLOUDY    14   4  64 S6        30.34S WCI   5
6HR MIN TEMP:   8; 6HR MAX TEMP:  14;

SPARTA         MOCLDY    10   4  78 E3        30.33S
VIROQUA        CLOUDY    10   2  70 S5        30.29R WCI   2
BOSCOBEL       MOCLDY    13   4  67 CALM      30.37S
6HR MIN TEMP:   6; 6HR MAX TEMP:  13;

PRAIRIE DU CHI CLOUDY    14   2  59 S3        30.37R
PLATTEVILLE    MOCLDY    13   5  71 CALM      30.34S
$$

WIZ056-057-062-063-064-067-068-280700-
SOUTH CENTRAL WISCONSIN

CITY           SKY/WX    TMP DP  RH WIND       PRES   REMARKS
REEDSBURG      MOCLDY     8   4  85 CALM      30.32F
BARABOO/DELLS  MOCLDY     9   4  82 CALM      30.32F
LONE ROCK      NOT AVBL
MINERAL POINT  CLOUDY    14   5  67 CALM      30.31S
MADISON        MOCLDY    12   6  77 CALM      30.33F
6HR MIN TEMP:   6; 6HR MAX TEMP:  13;

MIDDLETON      CLOUDY    13   7  76 CALM      30.34S
WATERTOWN      PTCLDY     9   6  89 CALM      30.34F
MONROE         MOCLDY    14   9  79 CALM      30.32S
JANESVILLE     MOCLDY    14   9  79 CALM      30.35F
$$

WIZ051-052-058>065-066-070>072-280700-
SOUTHEAST WISCONSIN

CITY           SKY/WX    TMP DP  RH WIND       PRES   REMARKS
MILWAUKEE      MOCLDY    14   7  73 W5        30.36F WCI   6
6HR MIN TEMP:  14; 6HR MAX TEMP:  18; 6HR PCP: TRACE;

WAUKESHA       PTCLDY    10   7  85 CALM      30.35F
MILWAUKEE/TIMM PTCLDY    12   9  85 CALM      30.38F
RACINE         MOCLDY    13   7  77 CALM      30.38F
6HR MIN TEMP:  12; 6HR MAX TEMP:  17;

BURLINGTON     MOCLDY     9   7  92 CALM      30.36F
KENOSHA        MOCLDY    12   8  84 CALM      30.36F
6HR MIN TEMP:   8; 6HR MAX TEMP:  18; 6HR PCP: TRACE;

FOND DU LAC    PTCLDY     5   1  83 CALM      30.35F
6HR MIN TEMP:  -2; 6HR MAX TEMP:  11; 6HR PCP: TRACE;

SHEBOYGAN      PTCLDY     4   0  83 CALM      30.35S
6HR MIN TEMP:   1; 6HR MAX TEMP:  11;

WEST BEND      PTCLDY     9   3  78 CALM      30.35F
JUNEAU         PTCLDY     7   4  89 CALM      30.35F
$$

LSZ147-162-280700-
LAKE SUPERIOR

STATION/POSITION TIME  TEMP    WIND        PRES    WAVE
                       AIR SEA DIR/SP/G            HT/PER
                 (UTC) (F)     (DEG/KT/KT) (MB)    (FT/S)
DEVILS ISLAND    0500   13     220/ 12/ 15 1027.1F
PORT WING        0540    7     160/  5/  7 1025.7F
SAXON HARBOR     0508    0      CALM  / 28 1026.4F
$$

LMZ867-665-643>646-280700-
LAKE MICHIGAN

STATION/POSITION TIME  TEMP    WIND        PRES    WAVE
                       AIR SEA DIR/SP/G            HT/PER
                 (UTC) (F)     (DEG/KT/KT) (MB)    (FT/S)
CHAMBERS ISLAND  0500   15     320/  6/ 11 1027.1F
N MID LAKE BUOY  0450   18 42  320/  6/ 10 1027.8F   2/ 4
NORTHPORT PIER   0513   16     300/  7/ 14 1026.8F
SISTER BAY       0458          340/ 13/ 15   N/A
KEWAUNEE LAKESHO 0500    6     300/  4/  6 1026.8R
SHEBOYGAN LAKESH 0500   10 34  280/  8/  9 1029.7R
PORT WASHINGTON  0500   11     280/  6/  9 1029.5
MILWAUKEE LAKESH 0500   15     290/  6/  7   N/A
S MID LAKE BUOY  0450   23 42  300/  6/ 10 1029.3F   4/ 7
KENOSHA   LAKESH 0500   15     290/  5/  6 1028.8S
$$

TC  - TEMPERATURE IN CELSIUS
VSB - VISIBILITY IN STATUTE MILES
WCI - WIND CHILL INDEX
HX  - HEAT INDEX




USA.gov is the U.S. government's official web portal to all federal, state and local government web resources and services.